Content
SEND FEEDBACK

Daily
Averages
Monthly
Summary
Canada

QUEBEC CITY, QUEBEC


Home > North America > Canada > Quebec
Elevation: 239 feet     Latitude: 46 48N     Longitude: 071 23W

WEATHER
 
SELECT A DAY
Number of Records: 192,044;   Date Range: 6/30/96 - 7/27/14
 
SHARE

PRINT THIS DATA

[ ← Previous Day ]
WEATHER ALMANAC - MAY 4, 2013
[ Next Day → ]
[ °C ]   °F
Weather ElementAverageHighLow
Temperature59.3 °F75.2 °F (4:00 pm)36 °F (5:00 am)
Dewpoint38.2 °F43 °F (11:00 pm)33 °F (5:00 am)
Humidity48.2 %86 % (5:00 am)15 % (5:00 pm)
Barometer30.31 in30.41 in (1:00 am)30.18 in (8:00 pm)
Wind Speed4.5 mph9.2 mph (8:00 am)
Weather ElementAverage
Visibility24.8 mi
Wind DirectionSE (130 °)

Weather ElementTotal
Precipitation---
Heating Degree Days9.4 (Base 65)
Growing Degree Days5.6 (Base 50)
Averaged from 31 records on May 4, 2013
WEATHER CONDITIONS BREAKOUT
WIND DIRECTION BREAKOUT
WEATHER BY HOUR - MAY 4, 2013
[ °C ]   °F
Local TimeTemperatureDewpointHumidityBarometerVisibilityWind DirectionWind SpeedGust SpeedPrecipitationEventsConditions
1:00 AM48.2 °F37.4 °F66 %30.41 in15.0 miNE (50°)6.9 mphClear
2:00 AM43.0 °F39.0 °F81 %30.38 inNE (50°)2.3 mph
2:00 AM46.4 °F39.2 °F76 %30.39 in15.0 miENE (60°)6.9 mphClear
3:00 AM44.6 °F37.4 °F76 %30.39 in15.0 miENE (70°)5.8 mphClear
4:00 AM44.6 °F37.4 °F76 %30.38 in15.0 miNE (40°)5.8 mphClear
5:00 AM36.0 °F33.0 °F86 %30.38 inNNW (330°)2.3 mph
5:00 AM44.6 °F35.6 °F71 %30.39 in15.0 miNorth (360°)3.5 mphClear
6:00 AM42.8 °F35.6 °F76 %30.39 in30.0 miNNE (20°)5.8 mphClear
7:00 AM46.4 °F37.4 °F71 %30.40 in30.0 miENE (70°)6.9 mphClear
8:00 AM51.0 °F39.0 °F54 %30.38 inEast (80°)6.9 mph
8:00 AM50.0 °F37.4 °F62 %30.40 in30.0 miENE (70°)9.2 mphClear
9:00 AM53.6 °F37.4 °F54 %30.40 in30.0 miEast (80°)9.2 mphClear
10:00 AM59.0 °F39.2 °F48 %30.39 in30.0 miENE (60°)6.9 mphPartly Cloudy
11:00 AM63.0 °F38.0 °F29 %30.34 inEast (100°)6.9 mph
11:00 AM62.6 °F39.2 °F42 %30.37 in30.0 miENE (70°)5.8 mphPartly Cloudy
12:00 PM66.2 °F41.0 °F40 %30.34 in30.0 miEast (80°)2.3 mphPartly Cloudy
1:00 PM69.8 °F41.0 °F35 %30.32 in30.0 miNE (40°)2.3 mphPartly Cloudy
2:00 PM73.0 °F39.0 °F19 %30.27 inENE (70°)1.2 mph
2:00 PM73.4 °F39.2 °F29 %30.29 in30.0 miNW (310°)4.6 mphPartly Cloudy
3:00 PM73.4 °F37.4 °F27 %30.26 in30.0 miESE (110°)8.1 mphPartly Cloudy
4:00 PM75.2 °F39.2 °F27 %30.24 in30.0 miSW (230°)4.6 mphPartly Cloudy
5:00 PM75.0 °F37.0 °F15 %30.20 inWNW (290°)4.6 mph
5:00 PM75.2 °F39.2 °F27 %30.22 in30.0 miNNW (330°)4.6 mphPartly Cloudy
6:00 PM75.2 °F37.4 °F25 %30.21 in30.0 miCalmPartly Cloudy
7:00 PM75.2 °F37.4 °F25 %30.20 in30.0 miWest (280°)2.3 mphPartly Cloudy
8:00 PM68.0 °F37.0 °F21 %30.18 inEast (80°)3.5 mph
8:00 PM71.6 °F37.4 °F29 %30.20 in30.0 miNNE (30°)2.3 mphPartly Cloudy
9:00 PM66.2 °F37.4 °F35 %30.21 in15.0 miNNE (20°)2.3 mphPartly Cloudy
10:00 PM59.0 °F39.2 °F48 %30.21 in15.0 miNNW (340°)2.3 mphClear
11:00 PM48.0 °F43.0 °F76 %30.19 inNW (310°)3.5 mph
11:00 PM59.0 °F39.2 °F48 %30.21 in15.0 miCalmClear
Hourly data recorded from CYQB, located miles away from Quebec City, Quebec







STORIES FROM OUR PARTNERS